[[{"header":{"parameterUnit":"m.s-1","parameterCategory":1,"la1":30.2991,"la2":30.254,"lo1":-89.0895,"lo2":-89.0444,"dy":0.0017,"dx":0.0017,"nx":28,"ny":28,"refTime":"2025-08-13T09:00:00:Z","depth":0,"parameterNumber":2,"parameterNumberName":"U-component_of_WINDS"},"data":[0,0,0,0,0,0,0,0,0,0,0,0,0,0,0,0,0,0,0,0,0,0,0,0,0,0,0,0,0,0,0,0,0,0,0,0,0,0,0,0,0,0,0,0,0,0,0,0,0,0,0,0,0,0,0,0,0,0,2.2715,2.2716,0,2.2747,2.2747,2.2747,2.2751,2.2751,2.2751,2.275,2.2782,2.2784,2.2785,0,0,0,0,0,0,0,0,0,0,0,0,0,2.266,2.2661,2.2715,2.2716,2.2716,2.2747,2.2747,2.2747,2.2751,2.2751,2.2751,2.275,2.2782,2.2783,2.2785,0,0,0,0,0,0,0,0,0,0,0,0,0,2.2687,2.2661,2.2715,2.2722,2.2723,2.2746,2.2747,2.2747,2.2751,2.2751,2.275,2.275,2.2782,2.2783,2.2785,2.2805,0,0,2.279,2.2791,0,0,0,0,0,0,0,0,2.2685,2.2689,2.272,2.2721,2.2722,2.2745,2.2739,2.2767,2.2751,2.274,2.275,2.275,2.277,2.2773,2.278,2.2806,2.2807,2.279,2.2791,2.2792,2.2793,0,0,0,0,0,0,0,2.2684,2.2688,2.2728,2.2721,2.2722,2.2723,2.2727,2.2744,2.2757,2.2741,2.2742,2.2745,2.2771,2.2778,2.278,2.2808,2.279,2.2792,2.2793,2.2793,2.2854,2.2855,0,0,0,0,0,0,2.268,2.2686,2.2727,2.2729,2.2702,2.2725,2.2729,2.2738,2.2757,2.276,2.2746,2.2745,2.2775,2.2778,2.2782,2.2807,2.2792,2.2794,2.2795,2.2854,2.2854,2.2855,0,0,0,0,0,0,2.2679,2.2684,2.2725,2.2708,2.2713,2.2726,2.2737,2.2739,2.2746,2.2761,2.2763,2.2751,2.2775,2.2779,2.2799,2.2808,2.2794,2.2796,2.2853,2.2854,2.2855,2.2857,0,0,0,0,0,0,2.2678,2.2684,2.2691,2.2708,2.2714,2.2742,2.2737,2.274,2.2749,2.2749,2.2766,2.2768,2.2775,2.2797,2.2801,2.281,2.2797,2.2852,2.2853,2.2854,2.2857,2.2858,2.286,0,0,0,0,0,2.2676,2.269,2.2691,2.2696,2.2723,2.2742,2.2746,2.2753,2.275,2.2757,2.2767,2.2768,2.2807,2.2799,2.2804,2.2814,2.2852,2.2853,2.2854,2.2856,2.2858,2.286,0,0,0,0,0,0,2.2673,2.2692,2.2694,2.2713,2.2726,2.2743,2.2753,2.2755,2.2769,2.2769,2.2777,2.2781,2.2801,2.2809,2.28,2.2835,2.2829,2.2831,2.2828,2.2831,2.2832,2.283,2.2799,0,0,0,0,0,2.2675,2.2689,2.2705,2.2721,2.2727,2.2739,2.2748,2.2753,2.2766,2.2772,2.2783,2.2796,2.2812,2.2822,2.2836,2.2858,2.2863,2.2868,2.2869,2.287,2.2872,2.2886,2.2889,2.2859,2.2859,2.2859,0,0,2.2678,2.269,2.2698,2.2721,2.2731,2.2746,2.2743,2.2759,2.2771,2.2774,2.2794,2.2803,2.2819,2.284,2.285,2.2847,2.2882,2.2872,2.2873,2.2874,2.2888,2.2891,2.2893,2.286,2.286,2.286,0,0,2.2692,2.2703,2.2718,2.2729,2.2746,2.2754,2.2757,2.2774,2.278,2.2801,2.2804,2.2819,2.2844,2.2856,2.2865,2.2887,2.2889,2.2891,2.29,2.2913,2.2915,2.2917,2.2926,2.2929,2.2893,2.2893,2.2893,0,2.2694,2.2717,2.2725,2.2741,2.2752,2.2756,2.2773,2.2783,2.2803,2.2811,2.2808,2.2842,2.2853,2.2878,2.2883,2.289,2.2896,2.2889,2.2914,2.2917,2.2919,2.2927,2.293,2.2894,2.2894,2.2893,2.2893,0,2.272,2.2736,2.2746,2.2766,2.2778,2.2794,2.2805,2.2816,2.2821,2.2829,2.2851,2.2864,2.2883,2.2889,2.2893,2.2916,2.2914,2.2912,2.2907,2.2922,2.293,2.2933,2.2894,2.2894,2.2894,2.2894,0,0,2.2731,2.2758,2.2762,2.2772,2.2791,2.2804,2.2821,2.284,2.2849,2.2864,2.2879,2.2902,2.2902,2.2912,2.2918,2.293,2.2947,2.2927,2.2928,2.2931,2.2975,2.2976,2.2979,2.2949,2.295,2.295,2.2974,0,2.2749,2.2779,2.2788,2.2814,2.2829,2.2835,2.285,2.2864,2.2874,2.2889,2.2899,2.2915,2.2913,2.292,2.2932,2.2943,2.2956,2.2941,2.2964,2.2965,2.296,2.2983,2.2984,2.3006,2.2977,2.2977,2.2978,0,2.2772,2.2788,2.2816,2.2835,2.2842,2.2855,2.2874,2.2888,2.2905,2.2911,2.2924,2.2929,2.2948,2.2942,2.2969,2.2959,2.2969,2.2976,2.2977,2.298,2.2972,2.2987,2.3012,2.3016,2.2982,2.2982,2.2982,0,2.2779,2.2808,2.2828,2.2837,2.286,2.2869,2.2879,2.2896,2.2907,2.2924,2.2931,2.295,2.296,2.2975,2.2985,2.298,2.3012,2.3006,2.3019,2.3018,2.3025,2.3024,2.3053,2.3031,2.3031,2.3031,2.303,0,2.2797,2.2814,2.2832,2.2845,2.2864,2.2875,2.2894,2.2905,2.292,2.2935,2.2941,2.2956,2.2969,2.2985,2.2994,2.3016,2.302,2.3026,2.3029,2.3026,2.3025,2.3033,2.3032,2.3031,2.3031,2.3031,2.3031,0,2.2808,2.2821,2.2844,2.2864,2.287,2.2884,2.2902,2.2915,2.2925,2.2945,2.295,2.2966,2.2986,2.2998,2.3023,2.3029,2.3054,2.3055,2.3048,2.3049,2.3061,2.306,2.3095,2.3101,2.3075,2.3075,2.3075,0,2.2819,2.2833,2.2855,2.2866,2.2877,2.2894,2.2906,2.2918,2.293,2.2952,2.2963,2.2983,2.3001,2.3033,2.3047,2.3066,2.3069,2.308,2.3072,2.3069,2.307,2.3069,2.3071,2.3081,2.3081,2.3081,2.3082,0,2.2838,2.2844,2.2861,2.2881,2.2895,2.2911,2.2927,2.2936,2.2951,2.2965,2.2986,2.2999,2.3026,2.3047,2.3068,2.3079,2.3083,2.3084,2.3088,2.3086,2.3082,2.3085,2.3053,2.3083,2.3083,2.3083,2.3083,2.3083,2.2849,2.2862,2.2881,2.29,2.2914,2.293,2.2943,2.2956,2.2974,2.2996,2.3003,2.3025,2.3044,2.3073,2.3085,2.3103,2.3101,2.3107,2.3108,2.311,2.311,2.3079,2.3107,2.3107,2.3107,2.3107,2.3107,0,2.2869,2.2882,2.29,2.2923,2.2938,2.2942,2.296,2.2973,2.2993,2.301,2.3027,2.3052,2.3073,2.309,2.3111,2.3123,2.3126,2.3128,2.3128,2.3131,2.311,2.3105,2.3126,2.3126,2.3126,2.3126,2.3126,2.3126,2.2881,2.2903,2.2912,2.2942,2.2955,2.2977,2.2988,2.3002,2.3016,2.3044,2.3062,2.3073,2.309,2.3113,2.3133,2.3138,2.3146,2.3148,2.3153,2.3134,2.3132,2.313,2.3125,2.315,2.315,2.3172,2.3172,2.3173]},{"header":{"parameterUnit":"m.s-1","parameterCategory":1,"la1":30.2991,"la2":30.254,"lo1":-89.0895,"lo2":-89.0444,"dy":0.0017,"dx":0.0017,"nx":28,"ny":28,"refTime":"2025-08-13T09:00:00:Z","depth":0,"parameterNumber":3,"parameterNumberName":"V-component_of_WINDS"},"data":[0,0,0,0,0,0,0,0,0,0,0,0,0,0,0,0,0,0,0,0,0,0,0,0,0,0,0,0,0,0,0,0,0,0,0,0,0,0,0,0,0,0,0,0,0,0,0,0,0,0,0,0,0,0,0,0,0,0,0.4318,0.4318,0,0.4292,0.4292,0.4291,0.4288,0.4289,0.4289,0.4289,0.4261,0.4261,0.426,0,0,0,0,0,0,0,0,0,0,0,0,0,0.4365,0.4364,0.4319,0.4318,0.4318,0.4292,0.4292,0.4291,0.4288,0.4289,0.4289,0.4289,0.4262,0.4261,0.4259,0,0,0,0,0,0,0,0,0,0,0,0,0,0.4343,0.4364,0.4319,0.4313,0.4312,0.4292,0.4292,0.4291,0.4288,0.4289,0.4289,0.4289,0.4262,0.4261,0.4259,0.4242,0,0,0.4255,0.4254,0,0,0,0,0,0,0,0,0.4344,0.4341,0.4314,0.4314,0.4313,0.4294,0.4298,0.4275,0.4288,0.4297,0.4289,0.429,0.4272,0.427,0.4264,0.4241,0.424,0.4255,0.4254,0.4253,0.4253,0,0,0,0,0,0,0,0.4345,0.4342,0.4308,0.4314,0.4313,0.4312,0.4309,0.4294,0.4283,0.4297,0.4296,0.4293,0.4272,0.4265,0.4263,0.424,0.4255,0.4253,0.4253,0.4252,0.4201,0.42,0,0,0,0,0,0,0.4348,0.4343,0.4309,0.4307,0.433,0.4311,0.4308,0.43,0.4283,0.4281,0.4293,0.4293,0.4268,0.4265,0.4262,0.4241,0.4253,0.4252,0.4251,0.4201,0.4201,0.42,0,0,0,0,0,0,0.4349,0.4345,0.431,0.4325,0.4321,0.4309,0.43,0.4299,0.4293,0.428,0.4278,0.4289,0.4268,0.4264,0.4247,0.424,0.4251,0.425,0.4202,0.4201,0.42,0.4198,0,0,0,0,0,0,0.435,0.4345,0.4339,0.4325,0.432,0.4296,0.43,0.4298,0.429,0.429,0.4276,0.4274,0.4268,0.4249,0.4246,0.4238,0.4249,0.4202,0.4202,0.4201,0.4199,0.4197,0.4196,0,0,0,0,0,0.4352,0.434,0.4339,0.4335,0.4312,0.4295,0.4292,0.4286,0.429,0.4283,0.4275,0.4274,0.4241,0.4248,0.4244,0.4235,0.4203,0.4202,0.4201,0.4199,0.4198,0.4196,0,0,0,0,0,0,0.4353,0.4338,0.4337,0.4319,0.4309,0.4295,0.4286,0.4285,0.4273,0.4273,0.4266,0.4263,0.4246,0.4239,0.4246,0.4218,0.4222,0.422,0.4223,0.4221,0.422,0.4221,0.4247,0,0,0,0,0,0.4351,0.4339,0.4327,0.4312,0.4307,0.4298,0.429,0.4286,0.4275,0.427,0.4261,0.425,0.4237,0.4229,0.4216,0.4198,0.4194,0.419,0.4189,0.4188,0.4186,0.4175,0.4173,0.4197,0.4197,0.4197,0,0,0.4347,0.4338,0.4331,0.4312,0.4304,0.4291,0.4294,0.4281,0.4271,0.4268,0.4252,0.4244,0.4231,0.4213,0.4205,0.4207,0.4178,0.4186,0.4186,0.4184,0.4174,0.4171,0.4169,0.4196,0.4196,0.4196,0,0,0.4334,0.4326,0.4312,0.4304,0.429,0.4284,0.4281,0.4267,0.4262,0.4245,0.4243,0.4231,0.4209,0.42,0.4192,0.4174,0.4173,0.4171,0.4164,0.4153,0.4151,0.4149,0.4142,0.414,0.4169,0.4169,0.4169,0,0.4331,0.4312,0.4306,0.4293,0.4284,0.4281,0.4268,0.4259,0.4243,0.4237,0.4239,0.4211,0.4203,0.4182,0.4178,0.4172,0.4167,0.4172,0.4152,0.415,0.4148,0.4142,0.4139,0.4169,0.4169,0.4169,0.4169,0,0.4308,0.4295,0.4286,0.427,0.4261,0.4248,0.4239,0.423,0.4227,0.4221,0.4203,0.4192,0.4177,0.4172,0.4169,0.4151,0.4152,0.4154,0.4158,0.4146,0.4139,0.4137,0.4168,0.4168,0.4169,0.4169,0,0,0.4295,0.4275,0.4272,0.4264,0.4249,0.4239,0.4225,0.421,0.4203,0.4191,0.4179,0.416,0.4161,0.4152,0.4148,0.4139,0.4125,0.4141,0.4141,0.4138,0.4103,0.4102,0.4099,0.4124,0.4123,0.4123,0.4104,0,0.4279,0.4254,0.4248,0.4227,0.4215,0.4211,0.4199,0.4188,0.4182,0.417,0.4162,0.4149,0.4152,0.4146,0.4137,0.4128,0.4118,0.413,0.4112,0.4111,0.4115,0.4096,0.4095,0.4077,0.4102,0.4101,0.4101,0,0.4257,0.4245,0.4223,0.4209,0.4203,0.4192,0.4178,0.4167,0.4154,0.415,0.414,0.4137,0.4122,0.4127,0.4106,0.4115,0.4107,0.4102,0.4101,0.4099,0.4105,0.4092,0.4072,0.4069,0.4097,0.4097,0.4098,0,0.4249,0.4227,0.421,0.4204,0.4187,0.418,0.4172,0.416,0.4152,0.4139,0.4133,0.4119,0.4111,0.41,0.4093,0.4098,0.4072,0.4077,0.4068,0.4068,0.4062,0.4062,0.4039,0.4058,0.4058,0.4058,0.4058,0,0.4231,0.4218,0.4206,0.4196,0.418,0.4173,0.4158,0.415,0.414,0.4128,0.4124,0.4113,0.4104,0.4091,0.4086,0.4069,0.4065,0.4061,0.4059,0.4061,0.4061,0.4055,0.4056,0.4057,0.4057,0.4058,0.4058,0,0.4219,0.4211,0.4193,0.4178,0.4174,0.4163,0.4151,0.4141,0.4134,0.4119,0.4115,0.4104,0.4089,0.408,0.4061,0.4057,0.4038,0.4038,0.4042,0.4042,0.4032,0.4033,0.4004,0.4,0.4022,0.4022,0.4022,0,0.4208,0.4197,0.4182,0.4174,0.4166,0.4153,0.4144,0.4137,0.4127,0.4112,0.4103,0.4088,0.4076,0.4052,0.4042,0.4027,0.4026,0.4017,0.4024,0.4025,0.4025,0.4025,0.4024,0.4015,0.4015,0.4015,0.4015,0,0.419,0.4186,0.4173,0.4159,0.4148,0.4137,0.4125,0.4119,0.4109,0.4099,0.4084,0.4074,0.4054,0.4039,0.4024,0.4016,0.4013,0.4013,0.401,0.4011,0.4014,0.4011,0.4039,0.4013,0.4014,0.4014,0.4014,0.4014,0.4177,0.4167,0.4155,0.414,0.4131,0.412,0.411,0.4101,0.4088,0.4072,0.4068,0.4052,0.4039,0.4018,0.401,0.3997,0.3998,0.3994,0.3993,0.3992,0.3991,0.4016,0.3994,0.3994,0.3994,0.3994,0.3994,0,0.4158,0.415,0.4137,0.412,0.4109,0.4108,0.4095,0.4086,0.4071,0.406,0.4047,0.4029,0.4014,0.4003,0.3988,0.3979,0.3978,0.3975,0.3976,0.3974,0.3991,0.3995,0.3977,0.3977,0.3977,0.3977,0.3977,0.3977,0.4147,0.4129,0.4124,0.4102,0.4094,0.4078,0.407,0.406,0.4051,0.4031,0.4018,0.4011,0.3999,0.3983,0.3969,0.3966,0.3961,0.3958,0.3955,0.3971,0.3973,0.3974,0.3978,0.3957,0.3957,0.3939,0.3939,0.3939]}]]